Regional Weather Roundup
Issued by NWS

Home | Current Version | Previous Version | Text Only | Print | Product List | Glossary Off
Versions: 1 2 3 4 5 6 7 8 9 10 11 12 13 14 15 16 17 18 19 20 21 22 23 24 25 26 27 28 29 30 31 32 33 34 35 36 37 38 39 40 41 42 43 44 45 46 47 48 49 50

000
ASUS43 KOAX 010910
RWRNE

WEATHER ROUNDUP FOR NEBRASKA
NATIONAL WEATHER SERVICE OMAHA NE
300 AM CST SUN MAR 01 2015

NOTES: SATELLITE DATA IS BEING USED TO AUGMENT CLOUD COVER ABOVE
       12000 FEET.
       "FAIR" INDICATES FEW OR NO CLOUDS BELOW 12,000 FEET WITH NO
       SIGNIFICANT WEATHER AND/OR OBSTRUCTIONS TO VISIBILITY.

  * THESE STATIONS DO NOT REPORT WEATHER SUCH AS RAIN...SNOW OR FOG.

NEZ001>004-019>022-054>056-011000-
NEBRASKA PANHANDLE

CITY           SKY/WX    TMP DP  RH WIND       PRES   REMARKS
SCOTTSBLUFF    MOCLDY    21  12  68 NE8       30.14R WCI  11
ALLIANCE       CLOUDY    16   9  74 NE6       30.13R WCI   7
CHADRON        CLOUDY    18  10  71 N9        30.21R WCI   7
KIMBALL        CLOUDY    20  17  86 CALM      30.06R
SIDNEY         CLOUDY    20  15  81 CALM      30.11R
$$

NEZ057>060-069>072-079>082-011000-
SOUTHWEST NEBRASKA

CITY           SKY/WX    TMP DP  RH WIND       PRES   REMARKS
NORTH PLATTE   CLOUDY    19  13  77 CALM      30.21R
IMPERIAL         N/A     18  12  77 SE5       30.17R WCI  11
LEXINGTON      CLOUDY    16  13  89 CALM      30.24S
MCCOOK         CLOUDY    22  15  75 SW6       30.23R WCI  14
OGALLALA       CLOUDY    20  14  76 CALM      30.17R
$$

NEZ005>010-023>029-035>040-094-011000-
NORTH CENTRAL NEBRASKA

CITY           SKY/WX    TMP DP  RH WIND       PRES   REMARKS
VALENTINE      CLOUDY    17   8  67 CALM      30.23S
AINSWORTH      CLOUDY    16   7  66 NW5       30.22S WCI   9
BROKEN BOW     MOCLDY    17  12  80 CALM      30.23R
O`NEILL        PTCLDY    15  10  79 NW3       30.24S
ORD            PTCLDY    12   7  80 SW6       30.25R WCI   3
THEDFORD       CLOUDY    17  10  71 CALM      30.21S
$$

NEZ041-046>049-061>064-073>077-083>087-011000-
SOUTH CENTRAL NEBRASKA

CITY           SKY/WX    TMP DP  RH WIND       PRES   REMARKS
GRAND ISLAND   MOCLDY    16  12  84 SW7       30.28R WCI   6
AURORA         PTCLDY    15  12  86 SW5       30.27S WCI   8
HASTINGS       PTCLDY    15  12  88 SW5       30.27R WCI   8
HEBRON         CLOUDY    19  15  86 S3        30.31F
HOLDREGE       MOCLDY    16  13  90 SW5       30.25R WCI   8
KEARNEY *      PTCLDY    16  12  86 SW6       30.26R WCI   7
YORK           MOCLDY    14  10  85 SW5       30.28F WCI   6
$$

NEZ011>018-030>034-042>045-011000-
NORTHEAST NEBRASKA

CITY           SKY/WX    TMP DP  RH WIND       PRES   REMARKS
NORFOLK        PTCLDY    16  12  84 W3        30.25F
ALBION         PTCLDY    14  10  83 CALM      30.25F
BLAIR          PTCLDY    20  15  78 SW5       30.30F WCI  14
COLUMBUS *     MOCLDY    16   7  67 W5        30.30F WCI   9
FREMONT        PTCLDY    20  15  80 SW7       30.31F WCI  11
TEKAMAH        PTCLDY    16  12  84 S6        30.33F WCI   7
WAYNE          PTCLDY    14  10  87 CALM      30.28S
$$

NEZ050>053-065>068-078-088>093-011000-
SOUTHEAST NEBRASKA

CITY           SKY/WX    TMP DP  RH WIND       PRES   REMARKS
LINCOLN        PTCLDY    20  14  77 SW3       30.34F
OMAHA EPPLEY   CLOUDY    22  14  71 SW8       30.34F WCI  12
BEATRICE       CLOUDY    21  18  88 CALM      30.32S
FALLS CITY     CLOUDY    20  17  88 CALM      30.35F
NEBRASKA CITY  CLOUDY    21  17  85 CALM      30.33F
PLATTSMOUTH    CLOUDY    22  16  78 CALM      30.32F
$$

NEZ044-045-051>053-067-011000-
OMAHA AREA

CITY           SKY/WX    TMP DP  RH WIND       PRES   REMARKS
OMAHA EPPLEY   CLOUDY    22  14  71 SW8       30.34F WCI  12
BLAIR          PTCLDY    20  15  78 SW5       30.30F WCI  14
FREMONT        PTCLDY    20  15  80 SW7       30.31F WCI  11
MILLARD        CLOUDY    22  15  73 CALM      30.33F
OFFUTT AFB     CLOUDY    22  15  72 W5        30.33F WCI  16
PLATTSMOUTH    CLOUDY    22  16  78 CALM      30.32F
WAHOO          FAIR      17  12  82 S3        30.31F
$$


USA.gov is the U.S. government's official web portal to all federal, state and local government web resources and services.